Tracking 28125 objects as of 2-Oct-2023
HD Live streaming from Space Station
objects crossing your sky now

GALAXY 26 (TELSTAR 6)

Track GALAXY 26 (TELSTAR 6) now!
GALAXY 26 (TELSTAR 6) is classified as:


NORAD ID: 25626
Int'l Code: 1999-005A
Perigee: 36,128.4 km
Apogee: 36,179.3 km
Inclination: 9.5 °
Period: 1,454.5 minutes
Semi major axis: 42524 km
RCS: 36.2015 m2 (large)
Launch date: February 15, 1999
Source: United States (US)
Launch site: TYURATAM MISSILE AND SPACE COMPLEX (TTMTR)

24 C-band, 28 Ku-band; U.S., southern Canada, Mexico, Caribbean.
Your satellite tracking list
Your tracking list is empty




NASA's NSSDC Master Catalog

Two Line Element Set (TLE):
1 25626U 99005A   23274.74494912 -.00000290  00000-0  00000-0 0  9994
2 25626   9.5168  55.8284 0005979 110.9129 263.5193  0.99000800 34201
Source of the keplerian elements: AFSPC